User: anonymous   Login
Location: Praha
(50.0830°N, 14.4670°E)
Time: 18:45:08
(UTC+02:00)
Language:

ISS - Orbit

View from above orbital plane
View from above orbital plane
View from above satellite
View from above satellite

Ground track
Ground track

The orbit data is extracted from the following two-line orbital elements,

1 25544U 98067A   19143.68764416  .00016717  00000-0  10270-3 0  9029
2 25544  51.6408 122.8911 0007360 326.1202  33.9478 15.51143083 11447
Epoch (UTC): 23 May 2019 16:30:12
Eccentricity: 0.0007360
inclination: 51.6408°
perigee height: 408 km
apogee height: 418 km
right ascension of ascending node: 122.8911°
argument of perigee: 326.1202°
revolutions per day: 15.51143083
mean anomaly at epoch: 33.9478°
orbit number at epoch: 1144

The dashed part of the orbit path shows where the satellite is in the earth's shadow,  

DLR